Location: ?ejeti?ky
(50.4060°N, 14.9016°E)
Time: 23:19:30
(UTC+00:00)

STARLINK-1282 - Visible Passes

Search period start: 01 October 2020 00:00
Search period end: 11 October 2020 00:00
Orbit: 549 x 550 km, 53.0° (Epoch: 01 October)

Date Brightness Start Highest point End Pass type
(mag) Time Alt. Az. Time Alt. Az. Time Alt. Az.
01 Oct 5.3 04:22:44 10° SSW 04:26:24 31° SE 04:30:05 10° E visible
02 Oct 4.9 04:17:00 10° SSW 04:20:51 38° SE 04:24:43 10° ENE visible
03 Oct 6.3 02:35:11 10° SSE 02:36:29 11° SE 02:37:46 10° ESE visible
03 Oct 4.5 04:11:16 10° SW 04:15:15 48° SSE 04:19:15 10° ENE visible
04 Oct 6.0 02:29:47 14° SSE 02:30:42 15° SE 02:33:03 10° E visible
04 Oct 4.1 04:05:32 10° SW 04:09:37 58° SSE 04:13:42 10° ENE visible
05 Oct 5.7 02:24:43 19° SE 02:24:53 19° SE 02:27:49 10° E visible
05 Oct 3.8 04:00:22 14° SW 04:03:55 70° SSE 04:08:03 10° ENE visible
06 Oct 5.5 02:19:30 23° SE 02:19:30 23° SE 02:22:22 10° E visible
06 Oct 3.6 03:55:09 18° WSW 03:58:10 82° SSE 04:02:20 10° ENE visible
07 Oct 5.4 02:14:09 26° ESE 02:14:09 26° ESE 02:16:44 10° E visible
07 Oct 3.6 03:49:48 22° WSW 03:52:23 87° NNW 03:56:33 10° ENE visible
08 Oct 5.5 02:08:41 27° E 02:08:41 27° E 02:10:59 10° ENE visible
08 Oct 3.6 03:44:19 27° W 03:46:32 77° NNW 03:50:42 10° ENE visible
09 Oct 5.6 02:03:07 25° E 02:03:07 25° E 02:05:08 10° ENE visible
09 Oct 3.7 03:38:44 31° W 03:40:38 70° NNW 03:44:46 10° ENE visible
10 Oct 5.8 01:57:27 23° E 01:57:27 23° E 01:59:10 10° ENE visible
10 Oct 3.7 03:33:04 35° W 03:34:40 65° N 03:38:48 10° ENE visible
